Погода в Вирдене

Нидерланды     52°21′36″N   6°36′03″E
темп.,
°C
ветер,
м/с
пор.,
м/с
влажн.,
%
обл.,
%
осадки,
мм/ч
давл.,
гПа
погр.,
м
18 августа, чт
чт1823:00+17ссз229524 0.3 101229
02:00+16сз2298100 0.3 101233
05:00+17зсз2494100 0.0 1012148
08:00+18зсз3593100 0.1 1013221
11:00+22сз446883 0.1 1014976
14:00+25ссз435478 0.4 10131470
17:00+24с3357100 0.1 10131120
20:00+22ссв346712 0.1 1014357
19 августа, пт
пт1923:00+17св34920 0.0 101467
02:00+15в22952 0.0 101523
05:00+14юв11952 0.0 101410
08:00+17ююв11865 0.0 101585
11:00+24зюз335625 0.0 10151027
14:00+28зсз444095 0.0 10132125
17:00+26сз3446100 0.0 1013870
20:00+23ссз116399 0.4 101419
20 августа, сб
сб2023:00+18сз2393100 4.1 101553
02:00+17з229326 5.7 101532
05:00+16зсз2296100 0.0 101526
08:00+17сз249440 0.1 1016173
11:00+21зсз337040 0.1 1016906
14:00+26зсз343819 0.2 10162225
17:00+27зсз343238 0.0 10152504
20:00+22сз694787 0.0 1015385
21 августа, вс
вс2123:00+18сз476882 0.0 1016159
02:00+16с2269100 0.0 101628
05:00+14зсз2280100 0.0 101525
08:00+16зюз127499 0.0 1015111
11:00+21з344286 0.0 1014821
14:00+25з343481 0.0 10141983
17:00+26зсз433381 0.0 10132444
20:00+19сз5870100 0.1 1015379
22 августа, пн
пн2223:00+15ссз36827 0.1 1016119
02:00+13ссз22925 0.1 101720
05:00+13ссз11920 0.0 101811
08:00+15ссз12821 0.0 101990
11:00+21с2250100 0.0 1019968
14:00+25с2231100 0.0 10191995
17:00+25с2128100 0.0 10182207
20:00+22св363880 0.0 1018142